PPR-pyyntö

Ennakkolupa on pakollinen lentoonlähtöjä ja laskuja varten. Pyydä ennakkolupa tästä lentopäivänä.

Laskukierrosvaraus

Tee ensin PPR-pyyntö, sitten vasta laskukierrosvaraus. Hinta 5 € / 15 min.

Aerodrome Info

Updated 11 DEC 2018 08:15 LT

  • Runway wet, water ponds on taxiways and aprons.
  • Preferred runway: 36

Contact duty officer at +358 20 7545 129 for more information.

Remember to close your flight plan: ACC tel. +358 3 286 5172

Weather


Helsinki Malmi lentokenttä
AWS ILHF 110730Z AUTO 01005KT 9999 OVC008 01/01 Q1012=



Helsinki-Malmin lentoasema

Tervetuloa Helsinki-Malmin lentokentälle

Malmin lentokenttäyhdistys ry toimii Suomen vilkkaimman yleisilmailukentän, Helsinki-Malmin operaattorina. Yhdistyksen toiminnassa ovat mukana kentällä toimivat yhteisöt sekä suuri joukko yleisilmailijoita.

Malmin lentokentän toiminta rahoitetaan jäsen- ja kausikorttimaksuin. Ole mukana jatkamassa Malmin lentotoimintaa ja liity jäseneksi!